Location: Cudham
(51.3000°N, 0.0667°E)
Time: 15:32:13
(UTC+00:00)

ATLAS CENTAUR R/B - Pass Details

Date: 19 May 2025
Orbit: 375 x 501 km, 64.6° (Epoch: 18 June)

Event Time Altitude Azimuth Distance (km) Brightness Sun altitude
Rises 20:54:19 0° 210° (SSW) 2,490 4.5 -8.4°
Reaches altitude 10° 20:56:24 10° 207° (SSW) 1,639 3.5 -8.6°
Maximum altitude 21:00:01 60° 127° (SE) 564 1.1 -9.0°
Drops below altitude 10° 21:03:48 10° 47° (NE) 1,710 3.9 -9.3°
Sets 21:06:01 0° 44° (NE) 2,610 4.9 -9.6°
